Powrót do katalogu

ONEWEB-0718

AktywnyŁącznośćPO
NORAD 56081·PAYLOAD·🇬🇧 United Kingdom

Wystrzelony Mar 26, 2023 z Satish Dhawan Space Centre

Loading…

Następne Przeloty (najbliższe 24 godziny)

TLE

ŚwieżeSource: CelesTrak SupGP

Epoka: Sep 14, 2026, 17:14 UTC

1 56081C 23043AM  26257.71824491  .00001191  00000+0  31668-2 0  2574
2 56081  87.8991 241.3507 0001550  86.7777 306.8910 13.15548817    10

Śledź ONEWEB-0718 w czasie rzeczywistym z AllMySat

Download on the App Store